Location: Utrecht
(52.0917°N, 5.1178°E)
Time: 02:44:36
(UTC+02:00)

X-37B - Pass Details

Date: 24 June 2021
Orbit: 383 x 392 km, 45.0° (Epoch: 01 July)

Event Time Altitude Azimuth Distance (km) Brightness Sun altitude
Rises 00:06:03 0° 234° (SW) 2,252 4.3 -11.6°
Reaches altitude 10° 00:08:28 10° 216° (SW) 1,400 3.1 -11.8°
Enters shadow 00:10:00 18° 189° (S) 1,040 2.2 -11.9°
